Weather History for Marshfield, WI

Change the Weather History Date:

Monday, January 7, 2013

  Actual Average Record
Temperature  
Mean Temperature 22 °F -  
Max Temperature 35 °F 19 °F 44 °F (2003)
Min Temperature 10 °F 1 °F -31 °F (1968)
Degree Days  
Heating Degree Days 42    
Moisture  
Dew Point 17 °F    
Average Humidity 76    
Maximum Humidity 88    
Minimum Humidity 59    
Precipitation  
Precipitation 0.00 in - - ()
Sea Level Pressure  
Sea Level Pressure 30.03 in    
Wind  
Wind Speed 10 mph (SW)    
Max Wind Speed 20 mph    
Max Gust Speed 28 mph    
Visibility 10 miles    
Events      
Averages and records for this station are not official NWS values.
T = Trace of Precipitation, MM = Missing Value Source: NWS Daily Summary

Daily Weather History Graph

Daily Weather History Graph

Search for Another Location

Airport:

Trip Planner

Search our weather history database for the weather conditions in past years. The results will help you decide how hot, cold, wet, or windy it might be!

Date:

Astronomy

Jan. 07, 2013 Rise Set
Actual Time 7:37 AM CST 4:37 PM CST
Civil Twilight 7:04 AM CST 5:10 PM CST
Nautical Twilight 6:27 AM CST 5:47 PM CST
Astronomical Twilight 5:52 AM CST 6:22 PM CST
Moon 2:58 AM CST (1/7) 12:50 PM CST (1/7)
Length of Visible Light 10h 06m
Length of Day
9h 00m
Waning Crescent, 22% of the Moon is Illuminated
Jan 7
Waning Crescent
Jan 11
New
Jan 18
First Quarter
Jan 26
Full
Feb 3
Last Quarter

Hourly Weather History & Observations

Time (CST) Temp. Windchill Dew Point Humidity Pressure Visibility Wind Dir Wind Speed Gust Speed Precip Events Conditions
12:54 AM 10.0 °F -2.9 °F 7.0 °F 87% 30.20 in 7.0 mi South 9.2 mph - N/A   Clear
1:54 AM 10.0 °F -3.7 °F 6.1 °F 84% 30.18 in 9.0 mi South 10.4 mph - N/A   Clear
2:54 AM 10.0 °F -2.9 °F 6.1 °F 84% 30.14 in 10.0 mi South 9.2 mph - N/A   Clear
3:54 AM 12.9 °F -0.9 °F 8.1 °F 81% 30.11 in 10.0 mi South 11.5 mph 19.6 mph N/A   Clear
4:54 AM 14.0 °F 1.2 °F 10.0 °F 84% 30.08 in 10.0 mi SSW 10.4 mph - N/A   Clear
6:54 AM 15.1 °F 3.3 °F 10.0 °F 80% 30.04 in 10.0 mi South 9.2 mph - N/A   Clear
7:54 AM 15.1 °F 4.2 °F 10.9 °F 84% 30.03 in 10.0 mi South 8.1 mph - N/A   Clear
8:54 AM 19.0 °F 12.3 °F 12.9 °F 77% 30.03 in 10.0 mi SW 4.6 mph - N/A   Clear
9:54 AM 26.1 °F 14.5 °F 17.1 °F 69% 30.01 in 10.0 mi SSW 13.8 mph 19.6 mph N/A   Clear
10:54 AM 30.9 °F 20.2 °F 19.0 °F 61% 29.99 in 10.0 mi SW 15.0 mph 24.2 mph N/A   Clear
11:54 AM 34.0 °F 22.7 °F 21.0 °F 59% 29.96 in 10.0 mi WSW 19.6 mph 27.6 mph N/A   Clear
1:54 PM 35.1 °F 25.5 °F 23.0 °F 61% 29.95 in 10.0 mi West 15.0 mph - N/A   Clear
2:54 PM 34.0 °F 25.0 °F 23.0 °F 64% 29.96 in 10.0 mi WSW 12.7 mph - N/A   Clear
3:54 PM 33.1 °F 25.5 °F 23.0 °F 66% 29.97 in 10.0 mi SW 9.2 mph - N/A   Clear
5:54 PM 30.0 °F 22.4 °F 21.9 °F 72% 29.99 in 10.0 mi SW 8.1 mph - N/A   Clear
6:54 PM 30.0 °F 22.4 °F 21.9 °F 72% 30.00 in 10.0 mi SW 8.1 mph - N/A   Clear
7:54 PM 28.0 °F 20.0 °F 21.9 °F 78% 30.00 in 10.0 mi WSW 8.1 mph - N/A   Clear
8:54 PM 28.0 °F 20.0 °F 21.9 °F 78% 30.00 in 10.0 mi WSW 8.1 mph - N/A   Clear
9:54 PM 27.0 °F 18.7 °F 21.9 °F 81% 30.00 in 10.0 mi WSW 8.1 mph - N/A   Clear
10:54 PM 26.1 °F 19.4 °F 21.9 °F 84% 30.01 in 10.0 mi SW 5.8 mph - N/A   Clear
11:54 PM 24.1 °F 17.0 °F 21.0 °F 88% 30.01 in 10.0 mi WSW 5.8 mph - N/A   Clear